DateTimeUTC,F1_A11,F1_S11,BsB_S11,BsG_S11,BsR_S11,BbsB_S11,BbsG_S11,BbsR_S11,BaB_A11,BaG_A11,BaR_A11,Tu_S11,T_S11,Uu_S11,U_S11,P_S11,T1_A11
2021-12-15T16:00:00Z,00000200,21000000,,,,,,,-000.13,-000.18,-000.07,19.8,26.9,,00.0,0638.7,31.1
2021-12-15T16:01:00Z,00000200,21000000,,,,,,,0000.02,-000.20,-000.33,19.8,26.9,,00.0,0638.7,31.1
2021-12-15T16:02:00Z,00000200,21000000,,,,,,,0000.13,0000.08,0000.51,19.8,26.9,,00.0,0638.8,31.1
2021-12-15T16:03:00Z,00000200,61000000,,,,,,,-000.05,0000.00,-000.31,19.8,26.9,,00.0,0638.8,31.1
2021-12-15T16:04:00Z,00000200,41000000,0000.03,0000.17,-000.44,-000.41,0000.15,-000.04,0000.06,0000.12,-000.00,20.1,26.7,,00.0,0639.7,31.2
2021-12-15T16:05:00Z,00000200,01000000,-000.33,0000.34,-000.16,0000.44,0000.20,-000.01,-000.22,0000.19,0000.13,20.2,26.7,,00.0,0639.9,31.2
2021-12-15T16:06:00Z,00000200,01000000,-000.51,0000.04,0000.07,-000.03,0000.11,0000.02,-000.16,-000.26,0000.18,20.3,26.7,,00.0,0639.8,31.2
2021-12-15T16:07:00Z,00000200,01000000,0000.36,0000.18,-000.02,0000.10,0000.09,0000.48,0000.06,0000.07,-000.33,20.3,26.8,,00.0,0639.9,31.2
2021-12-15T16:08:00Z,00000200,01000000,0000.56,0000.23,0000.00,-000.69,0000.35,0000.23,-000.07,-000.44,0000.08,20.4,26.8,,00.0,0640.0,31.2
2021-12-15T16:09:00Z,00000200,01000000,-000.02,0000.04,-000.13,0000.58,0000.19,0000.15,-000.13,0000.28,-000.09,20.4,26.8,,00.0,0640.0,31.2
2021-12-15T16:10:00Z,00000200,01000000,-000.02,0000.46,-000.24,0000.00,0000.18,-000.11,0000.14,-000.14,0000.07,20.4,26.8,,00.0,0640.0,31.2
2021-12-15T16:11:00Z,00000200,01000000,-000.05,0000.02,-000.13,-000.26,-000.18,-000.14,-000.06,0000.34,-000.15,20.4,26.9,,00.0,0640.1,31.2
2021-12-15T16:12:00Z,00000200,01000000,-000.00,-000.03,0000.11,-000.15,0000.09,0000.32,-000.32,-000.63,-000.16,20.3,26.8,,00.0,0640.1,31.2
2021-12-15T16:13:00Z,00000200,01000000,0000.94,0000.15,0000.01,0000.25,0000.22,0000.29,-000.10,-000.04,-000.31,20.3,26.8,,00.0,0640.1,31.2
2021-12-15T16:14:00Z,00000200,01000000,-000.66,0000.39,0000.02,-000.27,-000.02,0000.04,-000.17,0000.07,0000.13,20.2,26.8,,00.0,0640.1,31.1
2021-12-15T16:15:00Z,00000200,01000000,-000.44,0000.03,-000.10,0000.04,0000.10,0000.07,-000.28,-000.34,-000.37,20.2,26.7,,00.0,0640.1,31.1
2021-12-15T16:16:00Z,00000200,01000000,-000.26,-000.01,-000.31,-000.20,0000.04,-000.22,-000.42,-000.28,-000.03,20.2,26.7,,00.0,0640.1,31.2
2021-12-15T16:17:00Z,00000200,01000000,-000.03,0000.07,-000.29,-000.38,-000.05,0000.21,0000.32,-000.09,-000.03,20.2,26.7,,00.0,0640.1,31.1
2021-12-15T16:18:00Z,00000200,01000000,0000.03,0000.28,0000.20,0000.22,0000.20,0000.05,-000.10,-000.02,0000.07,20.2,26.7,,00.0,0640.1,31.2
2021-12-15T16:19:00Z,00000200,01000000,0000.90,0000.33,0000.09,0000.28,0000.40,-000.23,0000.21,0000.03,0000.17,20.3,26.7,,00.0,0640.1,31.2
2021-12-15T16:20:00Z,00000200,01000000,0000.35,0000.41,-000.25,-000.07,0000.15,0000.00,-000.35,0000.03,-000.11,20.4,26.8,,00.0,0640.1,31.2
2021-12-15T16:21:00Z,00000200,01000000,0000.31,0000.19,-000.15,-000.25,0000.21,0000.12,0000.44,0000.03,-000.04,20.5,26.8,,00.0,0640.1,31.2
2021-12-15T16:22:00Z,00000200,01000000,0000.12,0000.28,0000.18,-001.15,0000.36,0000.15,0000.04,0000.51,0000.36,20.5,26.9,,00.0,0640.1,31.2
2021-12-15T16:23:00Z,00000200,01000000,0000.01,-000.11,0000.20,-000.46,0000.35,-000.15,0000.38,0000.00,-000.13,20.5,26.9,,00.0,0640.1,31.2
2021-12-15T16:24:00Z,00000200,01000000,-000.16,-000.01,0000.04,-000.85,0000.03,-000.08,-000.07,0000.36,0000.06,20.5,26.9,,00.0,0640.1,31.2
2021-12-15T16:25:00Z,00000200,01000000,-000.47,0000.10,0000.14,-000.25,-000.17,0000.10,0000.11,-000.17,0000.20,20.4,26.9,,00.0,0640.1,31.2
2021-12-15T16:26:00Z,00000200,01000000,-000.48,0000.46,-000.05,-000.03,0000.41,-000.02,0000.17,0000.48,0000.02,20.4,26.8,,00.0,0640.1,31.2
2021-12-15T16:27:00Z,00000200,01000000,-000.72,0000.32,0000.14,-000.14,0000.20,0000.15,0000.15,-000.11,0000.09,20.3,26.8,,00.0,0640.1,31.1
2021-12-15T16:28:00Z,00000200,01000000,-000.37,-000.04,0000.11,-000.08,0000.01,-000.28,0000.05,0000.33,0000.46,20.3,26.8,,00.0,0640.0,31.2
2021-12-15T16:29:00Z,00000200,01000000,0000.04,-000.15,-000.46,0000.06,0000.09,-000.03,0000.28,-000.29,-000.12,20.2,26.8,,00.0,0640.0,31.1
2021-12-15T16:30:00Z,00000200,01000000,0000.71,0000.14,0000.14,-000.23,0000.51,0000.34,-000.39,-000.23,-000.26,20.2,26.8,,00.0,0640.0,31.1
2021-12-15T16:31:00Z,00000200,01000000,0000.84,-000.12,-000.10,0000.41,0000.12,-000.25,0000.32,0000.40,0000.36,20.2,26.7,,00.0,0640.1,31.1
2021-12-15T16:32:00Z,00000200,01000000,0000.13,0000.03,-000.22,0000.42,0000.15,0000.06,0000.09,-000.22,0000.05,20.2,26.7,,00.0,0640.1,31.1
2021-12-15T16:33:00Z,00000200,01000000,-000.24,0000.18,-000.37,0000.08,-000.11,-000.10,0000.10,0000.42,0000.10,20.2,26.7,,00.0,0640.1,31.1
2021-12-15T16:34:00Z,00000200,01000000,-000.32,0000.09,-000.08,-000.30,-000.09,0000.21,-000.07,0000.17,0000.15,20.3,26.7,,00.0,0640.1,31.2
2021-12-15T16:35:00Z,00000200,01000000,0000.17,-000.03,0000.03,-000.17,-000.19,0000.12,0000.48,0000.14,0000.01,20.4,26.8,,00.0,0640.1,31.2
2021-12-15T16:36:00Z,00000200,01000000,0000.09,0000.00,-000.15,0000.45,0000.34,0000.11,-000.18,-000.42,-000.13,20.4,26.8,,00.0,0640.2,31.2
2021-12-15T16:37:00Z,00000200,01000000,0000.87,-000.08,0000.08,-000.28,0000.33,0000.39,-000.12,0000.47,0000.10,20.4,26.9,,00.0,0640.2,31.2
2021-12-15T16:38:00Z,00000200,01000000,0000.30,0000.46,0000.11,-000.04,0000.02,0000.18,0000.27,-000.09,0000.11,20.4,26.8,,00.0,0640.2,31.2
2021-12-15T16:39:00Z,00000200,01000000,0000.45,0000.10,-000.10,0000.48,0000.23,-000.40,0000.01,-000.24,0000.24,20.4,26.9,,00.0,0640.2,31.2
2021-12-15T16:40:00Z,00000200,01000000,0000.92,0000.29,0000.08,-000.13,0000.15,-000.01,-000.15,0000.47,-000.42,20.3,26.8,,00.0,0640.2,31.2
2021-12-15T16:41:00Z,00000200,01000000,0000.29,0000.11,-000.33,0000.02,0000.26,-000.21,0000.11,-000.13,0000.19,20.3,26.8,,00.0,0640.2,31.2
2021-12-15T16:42:00Z,00000200,01000000,-000.07,-000.17,-000.09,0000.12,0000.37,-000.02,0000.28,0000.12,-000.15,20.2,26.8,,00.0,0640.2,31.1
2021-12-15T16:43:00Z,00000200,01000000,-000.43,0000.30,-000.29,-000.00,0000.25,0000.19,-000.13,-000.17,-000.01,20.2,26.7,,00.0,0640.2,31.1
2021-12-15T16:44:00Z,00000200,01000000,0000.58,-000.26,-000.06,-000.38,0000.28,0000.11,0000.22,-000.01,0000.17,20.1,26.7,,00.0,0640.3,31.1
2021-12-15T16:45:00Z,00000200,01000000,0001.20,0000.24,0000.04,-001.20,-000.10,0000.01,-000.81,-000.11,-000.34,20.1,26.7,,00.0,0640.3,31.1
2021-12-15T16:46:00Z,00000200,01000000,-000.69,0000.05,-000.13,-000.46,0000.30,-000.04,0000.37,-000.03,-000.10,20.0,26.6,,00.0,0640.3,31.1
2021-12-15T16:47:00Z,00000200,01000000,0000.34,0000.15,-000.23,-000.43,-000.32,0000.12,-000.26,0000.03,0000.40,20.1,26.6,,00.0,0640.3,31.1
2021-12-15T16:48:00Z,00000200,01000000,0000.89,0000.47,-000.07,0000.29,-000.02,-000.03,0000.14,-000.07,0000.02,20.2,26.7,,00.0,0640.4,31.1
2021-12-15T16:49:00Z,00000200,01000000,0001.49,-000.00,0000.33,-000.55,0000.36,-000.16,-000.13,0000.07,-000.21,20.2,26.7,,00.0,0640.4,31.2
2021-12-15T16:50:00Z,00000200,01000000,-000.12,0000.03,-000.20,-000.87,0000.26,0000.14,-000.05,0000.23,-000.03,20.3,26.7,,00.0,0640.3,31.2
2021-12-15T16:51:00Z,00000200,01000000,0000.10,0000.46,0000.15,-000.01,0000.26,0000.02,0000.26,-000.07,0000.16,20.4,26.8,,00.0,0640.3,31.2
2021-12-15T16:52:00Z,00000200,01000000,0000.31,0000.06,0000.15,-000.23,0000.30,-000.15,-000.08,-000.21,-000.12,20.4,26.8,,00.0,0640.3,31.2
2021-12-15T16:53:00Z,00000200,01000000,0000.10,0000.18,0000.04,-000.13,0000.21,-000.30,0000.24,0000.29,0000.12,20.5,26.8,,00.0,0640.4,31.2
2021-12-15T16:54:00Z,00000200,01000000,0000.09,0000.22,-000.28,-000.49,0000.14,0000.02,0000.21,0000.08,0000.17,20.5,26.9,,00.0,0640.4,31.2
2021-12-15T16:55:00Z,00000200,01000000,0000.05,0000.48,-000.35,-000.18,0000.51,-000.07,0000.46,0000.45,0000.21,20.5,26.9,,00.0,0640.4,31.2
2021-12-15T16:56:00Z,00000200,01000000,-000.19,0000.40,0000.10,-000.01,0000.38,-000.06,-000.28,-000.20,-000.03,20.5,26.9,,00.0,0640.3,31.2
2021-12-15T16:57:00Z,00000200,41000000,,,,,,,0000.28,0000.33,0000.61,20.5,26.9,,00.0,0640.3,31.2
2021-12-15T16:58:00Z,00000200,61000000,,,,,,,0000.07,0000.02,-000.38,20.1,26.9,,00.0,0639.4,31.2
2021-12-15T16:59:00Z,00000200,21000000,,,,,,,0000.01,-000.13,0000.10,20.1,27.0,,00.0,0639.4,31.2
